Time,TemperatureF,DewpointF,PressureIn,WindDirection,WindDirectionDegrees,WindSpeedMPH,WindSpeedGustMPH,Humidity,HourlyPrecipIn,Conditions,Clouds,dailyrainin,SoftwareType,DateUTC
2013-01-04 00:00:00,42.6,31.3,30.40,NE,46,4.0,8.0,64,0.00,,---,0.00,VWS V14.01,2013-01-04 06:00:00,
2013-01-04 00:03:00,42.6,31.7,30.40,NE,52,1.0,6.0,65,0.00,,---,0.00,VWS V14.01,2013-01-04 06:03:00,
2013-01-04 00:08:00,42.6,31.3,30.39,NE,36,3.0,8.0,64,0.00,,---,0.00,VWS V14.01,2013-01-04 06:08:00,
2013-01-04 00:13:00,42.6,31.7,30.40,ENE,67,0.0,8.0,65,0.00,,---,0.00,VWS V14.01,2013-01-04 06:13:00,
2013-01-04 00:18:00,42.6,31.7,30.40,North,1,3.0,8.0,65,0.00,,---,0.00,VWS V14.01,2013-01-04 06:18:00,
2013-01-04 00:23:00,42.6,31.7,30.39,ENE,62,2.0,8.0,65,0.00,,---,0.00,VWS V14.01,2013-01-04 06:23:00,
2013-01-04 00:28:00,42.6,31.7,30.40,NNW,340,1.0,8.0,65,0.00,,---,0.00,VWS V14.01,2013-01-04 06:28:00,
2013-01-04 00:30:00,42.6,31.7,30.40,NNE,20,0.0,8.0,65,0.00,,---,0.00,VWS V14.01,2013-01-04 06:30:00,
2013-01-04 00:33:00,42.6,31.7,30.40,North,356,0.0,7.0,65,0.00,,---,0.00,VWS V14.01,2013-01-04 06:33:00,
2013-01-04 00:38:00,42.6,31.7,30.40,NNE,18,2.0,7.0,65,0.00,,---,0.00,VWS V14.01,2013-01-04 06:38:00,
2013-01-04 00:43:00,42.7,31.8,30.40,North,8,2.0,7.0,65,0.00,,---,0.00,VWS V14.01,2013-01-04 06:43:00,
2013-01-04 00:48:00,42.7,31.8,30.40,NW,320,1.0,7.0,65,0.00,,---,0.00,VWS V14.01,2013-01-04 06:48:00,
2013-01-04 00:53:00,42.7,31.8,30.40,North,6,1.0,7.0,65,0.00,,---,0.00,VWS V14.01,2013-01-04 06:53:00,
2013-01-04 00:58:00,42.7,31.8,30.40,NE,46,1.0,7.0,65,0.00,,---,0.00,VWS V14.01,2013-01-04 06:58:00,
2013-01-04 01:00:00,42.6,31.7,30.40,NE,56,2.0,7.0,65,0.00,,---,0.00,VWS V14.01,2013-01-04 07:00:00,
2013-01-04 01:03:00,42.6,31.7,30.39,East,84,3.0,5.0,65,0.00,,---,0.00,VWS V14.01,2013-01-04 07:03:00,
2013-01-04 01:08:00,42.6,31.7,30.39,NNE,15,0.0,5.0,65,0.00,,---,0.00,VWS V14.01,2013-01-04 07:08:00,
2013-01-04 01:13:00,42.6,31.7,30.39,NNE,33,4.0,5.0,65,0.00,,---,0.00,VWS V14.01,2013-01-04 07:13:00,
2013-01-04 01:18:00,42.6,31.7,30.39,ENE,70,1.0,6.0,65,0.00,,---,0.00,VWS V14.01,2013-01-04 07:18:00,
2013-01-04 01:23:00,42.7,31.8,30.40,ENE,65,1.0,6.0,65,0.00,,---,0.00,VWS V14.01,2013-01-04 07:23:00,
2013-01-04 01:28:00,42.6,31.7,30.40,North,352,2.0,6.0,65,0.00,,---,0.00,VWS V14.01,2013-01-04 07:28:00,
2013-01-04 01:30:00,42.7,31.8,30.41,North,8,1.0,6.0,65,0.00,,---,0.00,VWS V14.01,2013-01-04 07:30:00,
2013-01-04 01:33:00,42.7,31.8,30.40,NNW,338,1.0,3.0,65,0.00,,---,0.00,VWS V14.01,2013-01-04 07:33:00,
2013-01-04 01:38:00,42.7,31.8,30.41,NE,47,0.0,3.0,65,0.00,,---,0.00,VWS V14.01,2013-01-04 07:38:00,
2013-01-04 01:43:00,42.6,31.7,30.41,NW,322,0.0,3.0,65,0.00,,---,0.00,VWS V14.01,2013-01-04 07:43:00,
2013-01-04 01:48:00,42.6,31.7,30.41,NE,56,2.0,4.0,65,0.00,,---,0.00,VWS V14.01,2013-01-04 07:48:00,
2013-01-04 01:53:00,42.6,32.4,30.41,North,356,1.0,4.0,67,0.00,,---,0.00,VWS V14.01,2013-01-04 07:53:00,
2013-01-04 01:58:00,42.2,33.5,30.40,NE,48,3.0,6.0,71,0.01,,---,0.01,VWS V14.01,2013-01-04 07:58:00,
2013-01-04 02:00:00,41.9,33.9,30.39,NE,54,1.0,6.0,73,0.01,,---,0.01,VWS V14.01,2013-01-04 08:00:00,
2013-01-04 02:03:00,41.4,33.8,30.40,North,8,0.0,3.0,74,0.02,,---,0.02,VWS V14.01,2013-01-04 08:03:00,
2013-01-04 02:08:00,40.9,34.3,30.40,NNW,344,1.0,4.0,77,0.02,,---,0.02,VWS V14.01,2013-01-04 08:08:00,
2013-01-04 02:13:00,40.4,34.4,30.40,NNE,13,0.0,4.0,79,0.03,,---,0.03,VWS V14.01,2013-01-04 08:13:00,
2013-01-04 02:18:00,40.1,34.4,30.41,NW,326,1.0,4.0,80,0.03,,---,0.03,VWS V14.01,2013-01-04 08:18:00,
2013-01-04 02:23:00,39.9,34.5,30.41,NW,316,3.0,4.0,81,0.03,,---,0.03,VWS V14.01,2013-01-04 08:23:00,
2013-01-04 02:28:00,39.8,34.8,30.41,North,1,1.0,4.0,82,0.03,,---,0.03,VWS V14.01,2013-01-04 08:28:00,
2013-01-04 02:30:00,39.8,34.8,30.41,NE,48,0.0,4.0,82,0.03,,---,0.03,VWS V14.01,2013-01-04 08:30:00,
2013-01-04 02:33:00,39.8,34.8,30.41,NNW,340,1.0,2.0,82,0.03,,---,0.03,VWS V14.01,2013-01-04 08:33:00,
2013-01-04 02:38:00,39.8,35.1,30.42,NW,304,2.0,4.0,83,0.03,,---,0.03,VWS V14.01,2013-01-04 08:38:00,
2013-01-04 02:43:00,39.8,35.1,30.42,NNW,340,0.0,4.0,83,0.03,,---,0.03,VWS V14.01,2013-01-04 08:43:00,
2013-01-04 02:48:00,39.8,34.8,30.42,NW,323,0.0,4.0,82,0.03,,---,0.03,VWS V14.01,2013-01-04 08:48:00,
2013-01-04 02:53:00,39.9,34.9,30.42,NE,36,1.0,4.0,82,0.03,,---,0.03,VWS V14.01,2013-01-04 08:53:00,
2013-01-04 02:58:00,40.0,34.7,30.43,NNW,329,0.0,4.0,81,0.03,,---,0.03,VWS V14.01,2013-01-04 08:58:00,
2013-01-04 03:00:00,40.0,34.7,30.43,NW,322,0.0,4.0,81,0.03,,---,0.03,VWS V14.01,2013-01-04 09:00:00,
2013-01-04 03:03:00,40.0,34.7,30.43,NW,324,1.0,2.0,81,0.02,,---,0.03,VWS V14.01,2013-01-04 09:03:00,
2013-01-04 03:08:00,40.1,34.4,30.43,NNE,23,0.0,3.0,80,0.02,,---,0.03,VWS V14.01,2013-01-04 09:08:00,
2013-01-04 03:13:00,40.0,34.7,30.43,NNW,335,0.0,3.0,81,0.02,,---,0.03,VWS V14.01,2013-01-04 09:13:00,
2013-01-04 03:18:00,39.9,34.2,30.44,NNW,340,1.0,3.0,80,0.02,,---,0.03,VWS V14.01,2013-01-04 09:18:00,
2013-01-04 03:23:00,40.0,34.3,30.44,NNW,340,0.0,3.0,80,0.02,,---,0.03,VWS V14.01,2013-01-04 09:23:00,
2013-01-04 03:28:00,39.9,34.5,30.44,North,360,1.0,3.0,81,0.03,,---,0.04,VWS V14.01,2013-01-04 09:28:00,
2013-01-04 03:30:00,39.9,34.5,30.43,North,5,3.0,5.0,81,0.03,,---,0.04,VWS V14.01,2013-01-04 09:30:00,
2013-01-04 03:33:00,39.9,34.9,30.42,NE,53,1.0,3.0,82,0.01,,---,0.04,VWS V14.01,2013-01-04 09:33:00,
2013-01-04 03:38:00,39.8,34.8,30.43,NW,311,2.0,4.0,82,0.01,,---,0.04,VWS V14.01,2013-01-04 09:38:00,
2013-01-04 03:42:00,39.7,34.7,30.44,NNW,344,3.0,4.0,82,0.01,,---,0.04,VWS V14.01,2013-01-04 09:42:00,
2013-01-04 03:48:00,39.4,34.7,30.43,North,352,1.0,4.0,83,0.02,,---,0.05,VWS V14.01,2013-01-04 09:48:00,
2013-01-04 03:53:00,39.2,34.8,30.42,NNE,30,3.0,5.0,84,0.02,,---,0.05,VWS V14.01,2013-01-04 09:53:00,
2013-01-04 03:58:00,39.0,34.6,30.44,East,81,0.0,6.0,84,0.03,,---,0.06,VWS V14.01,2013-01-04 09:58:00,
2013-01-04 04:00:00,38.9,34.5,30.44,NNW,347,1.0,6.0,84,0.03,,---,0.06,VWS V14.01,2013-01-04 10:00:00,
2013-01-04 04:02:00,38.9,34.5,30.44,WNW,300,1.0,4.0,84,0.03,,---,0.06,VWS V14.01,2013-01-04 10:02:00,
2013-01-04 04:07:00,38.8,34.7,30.44,NNW,342,1.0,4.0,85,0.04,,---,0.07,VWS V14.01,2013-01-04 10:07:00,
2013-01-04 04:12:00,38.8,34.7,30.44,NW,311,1.0,5.0,85,0.04,,---,0.07,VWS V14.01,2013-01-04 10:12:00,
2013-01-04 04:17:00,38.7,34.9,30.43,ENE,72,4.0,5.0,86,0.04,,---,0.07,VWS V14.01,2013-01-04 10:17:00,
2013-01-04 04:22:00,38.8,34.7,30.43,NNW,344,3.0,7.0,85,0.04,,---,0.07,VWS V14.01,2013-01-04 10:22:00,
2013-01-04 04:27:00,38.8,34.4,30.43,NNE,19,2.0,8.0,84,0.04,,---,0.07,VWS V14.01,2013-01-04 10:27:00,
2013-01-04 04:30:00,38.8,34.7,30.43,NNE,22,4.0,8.0,85,0.04,,---,0.07,VWS V14.01,2013-01-04 10:30:00,
2013-01-04 04:32:00,38.7,34.6,30.43,NE,47,2.0,6.0,85,0.03,,---,0.07,VWS V14.01,2013-01-04 10:32:00,
2013-01-04 04:37:00,38.8,34.4,30.43,NE,56,1.0,12.0,84,0.03,,---,0.07,VWS V14.01,2013-01-04 10:37:00,
2013-01-04 04:42:00,38.8,34.4,30.44,NNW,342,3.0,12.0,84,0.03,,---,0.07,VWS V14.01,2013-01-04 10:42:00,
2013-01-04 04:47:00,38.8,34.4,30.44,North,11,2.0,12.0,84,0.03,,---,0.07,VWS V14.01,2013-01-04 10:47:00,
2013-01-04 04:52:00,38.7,34.6,30.44,ESE,108,2.0,12.0,85,0.03,,---,0.07,VWS V14.01,2013-01-04 10:52:00,
2013-01-04 04:57:00,38.7,34.6,30.44,North,356,2.0,12.0,85,0.03,,---,0.07,VWS V14.01,2013-01-04 10:57:00,
2013-01-04 05:00:00,38.7,34.6,30.44,NE,44,1.0,12.0,85,0.03,,---,0.07,VWS V14.01,2013-01-04 11:00:00,
2013-01-04 05:02:00,38.7,34.6,30.44,WNW,292,2.0,3.0,85,0.01,,---,0.07,VWS V14.01,2013-01-04 11:02:00,
2013-01-04 05:07:00,38.6,34.5,30.44,NNE,26,0.0,12.0,85,0.01,,---,0.07,VWS V14.01,2013-01-04 11:07:00,
2013-01-04 05:12:00,38.5,34.4,30.44,NNE,25,3.0,12.0,85,0.01,,---,0.07,VWS V14.01,2013-01-04 11:12:00,
2013-01-04 05:17:00,38.4,34.6,30.44,NE,48,2.0,12.0,86,0.01,,---,0.07,VWS V14.01,2013-01-04 11:17:00,
2013-01-04 05:22:00,38.2,34.7,30.44,North,1,8.0,12.0,87,0.01,,---,0.07,VWS V14.01,2013-01-04 11:22:00,
2013-01-04 05:27:00,38.1,34.6,30.43,ENE,78,6.0,12.0,87,0.01,,---,0.07,VWS V14.01,2013-01-04 11:27:00,
2013-01-04 05:30:00,38.1,34.6,30.44,NW,305,4.0,12.0,87,0.01,,---,0.07,VWS V14.01,2013-01-04 11:30:00,
2013-01-04 05:32:00,38.0,34.5,30.44,WNW,291,3.0,7.0,87,0.00,,---,0.07,VWS V14.01,2013-01-04 11:32:00,
2013-01-04 05:37:00,38.0,34.2,30.45,North,354,3.0,8.0,86,0.00,,---,0.07,VWS V14.01,2013-01-04 11:37:00,
2013-01-04 05:42:00,38.0,34.5,30.45,WNW,301,4.0,11.0,87,0.00,,---,0.07,VWS V14.01,2013-01-04 11:42:00,
2013-01-04 05:47:00,37.9,34.4,30.45,ENE,70,2.0,13.0,87,0.00,,---,0.07,VWS V14.01,2013-01-04 11:47:00,
2013-01-04 05:52:00,37.8,34.3,30.44,NNE,13,7.0,13.0,87,0.00,,---,0.07,VWS V14.01,2013-01-04 11:52:00,
2013-01-04 05:57:00,37.8,34.3,30.44,NNE,22,4.0,13.0,87,0.00,,---,0.07,VWS V14.01,2013-01-04 11:57:00,
2013-01-04 06:00:00,37.7,34.5,30.43,SSW,196,4.0,13.0,88,0.00,,---,0.07,VWS V14.01,2013-01-04 12:00:00,
2013-01-04 06:02:00,37.7,34.5,30.44,NW,312,3.0,9.0,88,0.00,,---,0.07,VWS V14.01,2013-01-04 12:02:00,
2013-01-04 06:07:00,37.7,34.5,30.45,NE,49,5.0,9.0,88,0.00,,---,0.07,VWS V14.01,2013-01-04 12:07:00,
2013-01-04 06:12:00,37.7,34.5,30.45,NNW,348,8.0,13.0,88,0.00,,---,0.07,VWS V14.01,2013-01-04 12:12:00,
2013-01-04 06:17:00,37.7,34.5,30.45,NNE,32,3.0,13.0,88,0.00,,---,0.07,VWS V14.01,2013-01-04 12:17:00,
2013-01-04 06:22:00,37.7,34.5,30.45,NNW,333,1.0,13.0,88,0.00,,---,0.07,VWS V14.01,2013-01-04 12:22:00,
2013-01-04 06:27:00,37.7,34.5,30.45,NNE,21,5.0,13.0,88,0.00,,---,0.07,VWS V14.01,2013-01-04 12:27:00,
2013-01-04 06:30:00,37.7,34.5,30.44,NNE,29,5.0,13.0,88,0.00,,---,0.07,VWS V14.01,2013-01-04 12:30:00,
2013-01-04 06:32:00,37.7,34.5,30.44,NNE,22,7.0,8.0,88,0.00,,---,0.07,VWS V14.01,2013-01-04 12:32:00,
2013-01-04 06:37:00,37.6,34.4,30.45,NE,44,1.0,8.0,88,0.00,,---,0.07,VWS V14.01,2013-01-04 12:37:00,
2013-01-04 06:42:00,37.6,34.4,30.46,North,352,2.0,8.0,88,0.00,,---,0.07,VWS V14.01,2013-01-04 12:42:00,
2013-01-04 06:47:00,37.6,34.4,30.46,East,82,4.0,9.0,88,0.00,,---,0.07,VWS V14.01,2013-01-04 12:47:00,
2013-01-04 06:52:00,37.6,34.4,30.47,NNW,330,1.0,9.0,88,0.00,,---,0.07,VWS V14.01,2013-01-04 12:52:00,
2013-01-04 06:57:00,37.6,34.7,30.47,NNE,25,7.0,9.0,89,0.00,,---,0.07,VWS V14.01,2013-01-04 12:57:00,
2013-01-04 07:00:00,37.6,34.4,30.47,ENE,57,2.0,9.0,88,0.00,,---,0.07,VWS V14.01,2013-01-04 13:00:00,
2013-01-04 07:02:00,37.6,34.4,30.47,NNW,334,1.0,7.0,88,0.00,,---,0.07,VWS V14.01,2013-01-04 13:02:00,
2013-01-04 07:07:00,37.6,34.4,30.46,NNE,27,5.0,11.0,88,0.00,,---,0.07,VWS V14.01,2013-01-04 13:07:00,
2013-01-04 07:12:00,37.6,34.7,30.46,North,352,5.0,11.0,89,0.00,,---,0.07,VWS V14.01,2013-01-04 13:12:00,
2013-01-04 07:17:00,37.6,34.7,30.46,NE,37,3.0,11.0,89,0.00,,---,0.07,VWS V14.01,2013-01-04 13:17:00,
2013-01-04 07:22:00,37.6,34.7,30.46,ENE,65,4.0,11.0,89,0.00,,---,0.07,VWS V14.01,2013-01-04 13:22:00,
2013-01-04 07:27:00,37.6,34.7,30.46,ENE,69,5.0,11.0,89,0.00,,---,0.07,VWS V14.01,2013-01-04 13:27:00,
2013-01-04 07:30:00,37.6,34.7,30.46,NNE,32,7.0,11.0,89,0.00,,---,0.07,VWS V14.01,2013-01-04 13:30:00,
2013-01-04 07:32:00,37.5,34.6,30.46,North,4,2.0,9.0,89,0.00,,---,0.07,VWS V14.01,2013-01-04 13:32:00,
2013-01-04 07:37:00,37.5,34.6,30.47,NE,49,1.0,10.0,89,0.00,,---,0.07,VWS V14.01,2013-01-04 13:37:00,
2013-01-04 07:42:00,37.5,34.6,30.47,NNE,19,6.0,10.0,89,0.01,,---,0.08,VWS V14.01,2013-01-04 13:42:00,
2013-01-04 07:47:00,37.4,34.5,30.48,NNE,20,6.0,10.0,89,0.01,,---,0.08,VWS V14.01,2013-01-04 13:47:00,
2013-01-04 07:52:00,37.4,34.7,30.48,NNW,332,4.0,10.0,90,0.01,,---,0.08,VWS V14.01,2013-01-04 13:52:00,
2013-01-04 07:57:00,37.4,34.7,30.49,NNW,336,2.0,10.0,90,0.01,,---,0.08,VWS V14.01,2013-01-04 13:57:00,
2013-01-04 08:00:00,37.4,34.7,30.48,NNE,25,7.0,12.0,90,0.01,,---,0.08,VWS V14.01,2013-01-04 14:00:00,
2013-01-04 08:02:00,37.4,34.5,30.48,ENE,75,8.0,9.0,89,0.01,,---,0.08,VWS V14.01,2013-01-04 14:02:00,
2013-01-04 08:07:00,37.4,34.5,30.47,WNW,300,5.0,11.0,89,0.01,,---,0.08,VWS V14.01,2013-01-04 14:07:00,
2013-01-04 08:12:00,37.4,34.5,30.47,East,84,5.0,11.0,89,0.01,,---,0.08,VWS V14.01,2013-01-04 14:12:00,
2013-01-04 08:17:00,37.5,34.8,30.48,NE,48,1.0,11.0,90,0.01,,---,0.08,VWS V14.01,2013-01-04 14:17:00,
2013-01-04 08:22:00,37.5,34.8,30.48,East,101,7.0,11.0,90,0.01,,---,0.08,VWS V14.01,2013-01-04 14:22:00,
2013-01-04 08:27:00,37.6,34.9,30.48,NE,44,5.0,11.0,90,0.01,,---,0.08,VWS V14.01,2013-01-04 14:27:00,
2013-01-04 08:30:00,37.6,34.9,30.48,NE,41,5.0,11.0,90,0.01,,---,0.08,VWS V14.01,2013-01-04 14:30:00,
2013-01-04 08:32:00,37.6,34.9,30.48,ENE,58,7.0,9.0,90,0.01,,---,0.08,VWS V14.01,2013-01-04 14:32:00,
2013-01-04 08:37:00,37.7,35.0,30.48,NNW,328,2.0,10.0,90,0.01,,---,0.08,VWS V14.01,2013-01-04 14:37:00,
2013-01-04 08:42:00,37.8,35.1,30.48,NW,307,5.0,10.0,90,0.01,,---,0.08,VWS V14.01,2013-01-04 14:42:00,
2013-01-04 08:47:00,37.8,35.1,30.48,North,4,4.0,10.0,90,0.01,,---,0.08,VWS V14.01,2013-01-04 14:47:00,
2013-01-04 08:52:00,37.7,34.8,30.49,NNE,19,5.0,13.0,89,0.01,,---,0.08,VWS V14.01,2013-01-04 14:52:00,
2013-01-04 08:57:00,37.7,34.8,30.49,NNE,30,6.0,13.0,89,0.01,,---,0.08,VWS V14.01,2013-01-04 14:57:00,
2013-01-04 09:00:00,37.7,35.0,30.49,North,356,3.0,13.0,90,0.01,,---,0.08,VWS V14.01,2013-01-04 15:00:00,
2013-01-04 09:02:00,37.7,34.8,30.49,North,352,5.0,9.0,89,0.00,,---,0.08,VWS V14.01,2013-01-04 15:02:00,
2013-01-04 09:07:00,37.7,35.0,30.49,ENE,58,4.0,10.0,90,0.00,,---,0.08,VWS V14.01,2013-01-04 15:07:00,
2013-01-04 09:12:00,37.7,35.0,30.50,North,6,2.0,10.0,90,0.00,,---,0.08,VWS V14.01,2013-01-04 15:12:00,
2013-01-04 09:17:00,37.8,35.1,30.50,NNE,31,6.0,10.0,90,0.00,,---,0.08,VWS V14.01,2013-01-04 15:17:00,
2013-01-04 09:22:00,37.7,35.0,30.50,NNE,25,5.0,10.0,90,0.00,,---,0.08,VWS V14.01,2013-01-04 15:22:00,
2013-01-04 09:27:00,37.7,35.0,30.50,ENE,70,1.0,10.0,90,0.00,,---,0.08,VWS V14.01,2013-01-04 15:27:00,
2013-01-04 09:30:00,37.8,35.4,30.50,NNE,29,5.0,10.0,91,0.00,,---,0.08,VWS V14.01,2013-01-04 15:30:00,
2013-01-04 09:32:00,37.7,35.0,30.50,NNE,29,5.0,8.0,90,0.00,,---,0.08,VWS V14.01,2013-01-04 15:32:00,
2013-01-04 09:37:00,37.8,35.4,30.50,NNE,33,5.0,10.0,91,0.00,,---,0.08,VWS V14.01,2013-01-04 15:37:00,
2013-01-04 09:42:00,37.9,35.5,30.50,NE,37,3.0,11.0,91,0.01,,---,0.09,VWS V14.01,2013-01-04 15:42:00,
2013-01-04 09:47:00,37.9,35.5,30.50,NE,44,4.0,11.0,91,0.01,,---,0.09,VWS V14.01,2013-01-04 15:47:00,
2013-01-04 09:52:00,37.9,35.5,30.50,NNE,19,8.0,11.0,91,0.01,,---,0.09,VWS V14.01,2013-01-04 15:52:00,
2013-01-04 09:57:00,38.0,35.6,30.50,NE,47,5.0,11.0,91,0.01,,---,0.09,VWS V14.01,2013-01-04 15:57:00,
2013-01-04 10:00:00,38.0,35.6,30.50,NNE,33,7.0,11.0,91,0.01,,---,0.09,VWS V14.01,2013-01-04 16:00:00,
2013-01-04 10:02:00,38.1,35.7,30.50,NE,37,4.0,10.0,91,0.01,,---,0.09,VWS V14.01,2013-01-04 16:02:00,
2013-01-04 10:07:00,38.1,35.7,30.50,NNE,20,5.0,10.0,91,0.01,,---,0.09,VWS V14.01,2013-01-04 16:07:00,
2013-01-04 10:12:00,38.3,35.9,30.50,NNW,336,5.0,10.0,91,0.01,,---,0.09,VWS V14.01,2013-01-04 16:12:00,
2013-01-04 10:17:00,38.4,36.0,30.50,NE,47,3.0,10.0,91,0.01,,---,0.09,VWS V14.01,2013-01-04 16:17:00,
2013-01-04 10:22:00,38.4,35.7,30.50,NE,48,5.0,11.0,90,0.01,,---,0.09,VWS V14.01,2013-01-04 16:22:00,
2013-01-04 10:27:00,38.5,35.8,30.50,NW,325,2.0,11.0,90,0.01,,---,0.09,VWS V14.01,2013-01-04 16:27:00,
2013-01-04 10:30:00,38.6,35.9,30.50,ENE,76,3.0,11.0,90,0.01,,---,0.09,VWS V14.01,2013-01-04 16:30:00,
2013-01-04 10:32:00,38.7,36.0,30.51,ENE,75,4.0,8.0,90,0.01,,---,0.09,VWS V14.01,2013-01-04 16:32:00,
2013-01-04 10:37:00,38.7,36.0,30.50,ENE,76,3.0,8.0,90,0.01,,---,0.09,VWS V14.01,2013-01-04 16:37:00,
2013-01-04 10:42:00,38.8,35.8,30.51,North,5,4.0,11.0,89,0.01,,---,0.09,VWS V14.01,2013-01-04 16:42:00,
2013-01-04 10:47:00,38.9,35.9,30.50,NNE,17,6.0,11.0,89,0.01,,---,0.09,VWS V14.01,2013-01-04 16:47:00,
2013-01-04 10:52:00,38.9,35.9,30.50,ENE,63,3.0,12.0,89,0.01,,---,0.09,VWS V14.01,2013-01-04 16:52:00,
2013-01-04 10:57:00,39.0,35.8,30.50,NNE,18,4.0,12.0,88,0.01,,---,0.09,VWS V14.01,2013-01-04 16:57:00,
2013-01-04 11:00:00,39.0,36.0,30.50,NNE,29,6.0,12.0,89,0.01,,---,0.09,VWS V14.01,2013-01-04 17:00:00,
2013-01-04 11:02:00,39.1,36.1,30.50,NNE,20,4.0,7.0,89,0.00,,---,0.09,VWS V14.01,2013-01-04 17:02:00,
2013-01-04 11:07:00,39.2,36.0,30.50,ENE,63,8.0,9.0,88,0.00,,---,0.09,VWS V14.01,2013-01-04 17:07:00,
2013-01-04 11:12:00,39.2,36.0,30.50,ENE,57,7.0,11.0,88,0.00,,---,0.09,VWS V14.01,2013-01-04 17:12:00,
2013-01-04 11:17:00,39.2,36.0,30.49,North,354,4.0,11.0,88,0.00,,---,0.09,VWS V14.01,2013-01-04 17:17:00,
2013-01-04 11:22:00,39.3,35.8,30.49,ENE,63,6.0,11.0,87,0.00,,---,0.09,VWS V14.01,2013-01-04 17:22:00,
2013-01-04 11:27:00,39.3,35.8,30.48,East,89,3.0,11.0,87,0.00,,---,0.09,VWS V14.01,2013-01-04 17:27:00,
2013-01-04 11:30:00,39.3,35.8,30.48,NW,323,4.0,11.0,87,0.00,,---,0.09,VWS V14.01,2013-01-04 17:30:00,
2013-01-04 11:32:00,39.3,35.8,30.48,NE,36,11.0,11.0,87,0.00,,---,0.09,VWS V14.01,2013-01-04 17:32:00,
2013-01-04 11:37:00,39.2,35.4,30.48,ENE,61,3.0,11.0,86,0.00,,---,0.09,VWS V14.01,2013-01-04 17:37:00,
2013-01-04 11:42:00,39.3,35.8,30.48,ENE,73,4.0,11.0,87,0.00,,---,0.09,VWS V14.01,2013-01-04 17:42:00,
2013-01-04 11:47:00,39.4,35.9,30.48,NNE,27,7.0,13.0,87,0.00,,---,0.09,VWS V14.01,2013-01-04 17:47:00,
2013-01-04 11:52:00,39.5,36.5,30.47,ENE,63,2.0,13.0,89,0.00,,---,0.09,VWS V14.01,2013-01-04 17:52:00,
2013-01-04 11:57:00,39.5,36.2,30.47,NNE,15,5.0,13.0,88,0.00,,---,0.09,VWS V14.01,2013-01-04 17:57:00,
2013-01-04 12:00:00,39.5,36.2,30.47,NNW,345,5.0,13.0,88,0.00,,---,0.09,VWS V14.01,2013-01-04 18:00:00,
2013-01-04 12:02:00,39.5,36.2,30.46,ENE,58,4.0,9.0,88,0.00,,---,0.09,VWS V14.01,2013-01-04 18:02:00,
2013-01-04 12:07:00,39.6,36.3,30.46,NNE,23,6.0,9.0,88,0.00,,---,0.09,VWS V14.01,2013-01-04 18:07:00,
2013-01-04 12:12:00,39.7,36.4,30.45,NNE,25,7.0,9.0,88,0.00,,---,0.09,VWS V14.01,2013-01-04 18:12:00,
2013-01-04 12:17:00,39.8,36.2,30.45,ENE,74,4.0,9.0,87,0.00,,---,0.09,VWS V14.01,2013-01-04 18:17:00,
2013-01-04 12:22:00,39.8,36.2,30.45,NE,49,3.0,9.0,87,0.00,,---,0.09,VWS V14.01,2013-01-04 18:22:00,
2013-01-04 12:27:00,39.7,36.4,30.44,NE,41,4.0,9.0,88,0.00,,---,0.09,VWS V14.01,2013-01-04 18:27:00,
2013-01-04 12:30:00,39.7,36.2,30.44,ENE,68,7.0,9.0,87,0.00,,---,0.09,VWS V14.01,2013-01-04 18:30:00,
2013-01-04 12:32:00,39.6,36.1,30.44,North,352,6.0,9.0,87,0.00,,---,0.09,VWS V14.01,2013-01-04 18:32:00,
2013-01-04 12:37:00,39.6,35.8,30.44,ENE,60,6.0,12.0,86,0.00,,---,0.09,VWS V14.01,2013-01-04 18:37:00,
2013-01-04 12:42:00,39.6,36.1,30.44,NE,39,3.0,12.0,87,0.00,,---,0.09,VWS V14.01,2013-01-04 18:42:00,
2013-01-04 12:47:00,39.7,36.4,30.44,NNE,13,3.0,12.0,88,0.00,,---,0.09,VWS V14.01,2013-01-04 18:47:00,
2013-01-04 12:52:00,39.7,36.4,30.43,NE,39,5.0,12.0,88,0.00,,---,0.09,VWS V14.01,2013-01-04 18:52:00,
2013-01-04 12:57:00,39.8,36.8,30.43,North,5,5.0,12.0,89,0.00,,---,0.09,VWS V14.01,2013-01-04 18:57:00,
2013-01-04 13:00:00,39.9,36.6,30.43,NE,47,4.0,12.0,88,0.00,,---,0.09,VWS V14.01,2013-01-04 19:00:00,
2013-01-04 13:02:00,39.9,36.6,30.43,NNE,27,4.0,5.0,88,0.00,,---,0.09,VWS V14.01,2013-01-04 19:02:00,
2013-01-04 13:07:00,40.1,36.8,30.42,NNW,347,4.0,5.0,88,0.00,,---,0.09,VWS V14.01,2013-01-04 19:07:00,
2013-01-04 13:12:00,40.0,36.5,30.42,NE,37,3.0,7.0,87,0.00,,---,0.09,VWS V14.01,2013-01-04 19:12:00,
2013-01-04 13:17:00,40.0,36.5,30.41,NNE,18,7.0,10.0,87,0.00,,---,0.09,VWS V14.01,2013-01-04 19:17:00,
2013-01-04 13:22:00,40.0,36.5,30.41,NE,40,1.0,10.0,87,0.00,,---,0.09,VWS V14.01,2013-01-04 19:22:00,
2013-01-04 13:27:00,40.1,36.8,30.41,NE,44,3.0,10.0,88,0.00,,---,0.09,VWS V14.01,2013-01-04 19:27:00,
2013-01-04 13:30:00,40.1,36.5,30.41,West,276,2.0,10.0,87,0.00,,---,0.09,VWS V14.01,2013-01-04 19:30:00,
2013-01-04 13:32:00,40.1,36.5,30.40,NE,39,1.0,6.0,87,0.00,,---,0.09,VWS V14.01,2013-01-04 19:32:00,
2013-01-04 13:37:00,40.1,36.8,30.40,ENE,59,4.0,6.0,88,0.00,,---,0.09,VWS V14.01,2013-01-04 19:37:00,
2013-01-04 13:42:00,40.2,36.9,30.40,NE,53,5.0,8.0,88,0.00,,---,0.09,VWS V14.01,2013-01-04 19:42:00,
2013-01-04 13:47:00,40.2,36.9,30.40,NE,40,3.0,8.0,88,0.00,,---,0.09,VWS V14.01,2013-01-04 19:47:00,
2013-01-04 13:52:00,40.1,36.8,30.40,ENE,65,7.0,10.0,88,0.00,,---,0.09,VWS V14.01,2013-01-04 19:52:00,
2013-01-04 13:57:00,40.2,37.2,30.40,East,84,4.0,10.0,89,0.00,,---,0.09,VWS V14.01,2013-01-04 19:57:00,
2013-01-04 14:00:00,40.3,37.0,30.39,North,5,5.0,10.0,88,0.00,,---,0.09,VWS V14.01,2013-01-04 20:00:00,
2013-01-04 14:02:00,40.3,37.0,30.40,NNE,17,3.0,6.0,88,0.00,,---,0.09,VWS V14.01,2013-01-04 20:02:00,
2013-01-04 14:07:00,40.4,37.4,30.40,North,352,1.0,6.0,89,0.00,,---,0.09,VWS V14.01,2013-01-04 20:07:00,
2013-01-04 14:12:00,40.4,37.1,30.39,NE,44,5.0,8.0,88,0.00,,---,0.09,VWS V14.01,2013-01-04 20:12:00,
2013-01-04 14:17:00,40.4,36.8,30.39,NNE,22,6.0,9.0,87,0.00,,---,0.09,VWS V14.01,2013-01-04 20:17:00,
2013-01-04 14:22:00,40.4,36.8,30.39,NNE,19,4.0,9.0,87,0.00,,---,0.09,VWS V14.01,2013-01-04 20:22:00,
2013-01-04 14:27:00,40.6,37.3,30.39,ENE,60,3.0,9.0,88,0.00,,---,0.09,VWS V14.01,2013-01-04 20:27:00,
2013-01-04 14:30:00,40.7,37.1,30.39,NNE,18,5.0,9.0,87,0.00,,---,0.09,VWS V14.01,2013-01-04 20:30:00,
2013-01-04 14:32:00,40.8,36.9,30.39,NE,44,2.0,7.0,86,0.00,,---,0.09,VWS V14.01,2013-01-04 20:32:00,
2013-01-04 14:37:00,40.8,36.9,30.39,ENE,70,0.0,8.0,86,0.00,,---,0.09,VWS V14.01,2013-01-04 20:37:00,
2013-01-04 14:42:00,41.2,37.0,30.39,North,11,5.0,8.0,85,0.00,,---,0.09,VWS V14.01,2013-01-04 20:42:00,
2013-01-04 14:47:00,41.3,37.1,30.38,North,8,1.0,8.0,85,0.00,,---,0.09,VWS V14.01,2013-01-04 20:47:00,
2013-01-04 14:52:00,41.4,36.6,30.38,ENE,58,5.0,9.0,83,0.00,,---,0.09,VWS V14.01,2013-01-04 20:52:00,
2013-01-04 14:57:00,41.5,37.0,30.38,NNE,30,2.0,9.0,84,0.00,,---,0.09,VWS V14.01,2013-01-04 20:57:00,
2013-01-04 15:00:00,41.5,37.0,30.38,NNW,338,5.0,9.0,84,0.00,,---,0.09,VWS V14.01,2013-01-04 21:00:00,
2013-01-04 15:02:00,41.6,36.8,30.38,NNW,335,3.0,7.0,83,0.00,,---,0.09,VWS V14.01,2013-01-04 21:02:00,
2013-01-04 15:07:00,41.7,37.2,30.38,NE,40,4.0,7.0,84,0.00,,---,0.09,VWS V14.01,2013-01-04 21:07:00,
2013-01-04 15:12:00,41.8,37.0,30.38,NE,39,4.0,7.0,83,0.00,,---,0.09,VWS V14.01,2013-01-04 21:12:00,
2013-01-04 15:17:00,41.9,37.1,30.38,NE,48,3.0,8.0,83,0.00,,---,0.09,VWS V14.01,2013-01-04 21:17:00,
2013-01-04 15:22:00,41.8,36.7,30.38,ENE,67,3.0,8.0,82,0.00,,---,0.09,VWS V14.01,2013-01-04 21:22:00,
2013-01-04 15:27:00,41.9,36.8,30.38,ENE,70,0.0,8.0,82,0.00,,---,0.09,VWS V14.01,2013-01-04 21:27:00,
2013-01-04 15:30:00,41.9,36.5,30.38,NNE,23,4.0,8.0,81,0.00,,---,0.09,VWS V14.01,2013-01-04 21:30:00,
2013-01-04 15:32:00,41.9,36.8,30.38,NNE,19,4.0,6.0,82,0.00,,---,0.09,VWS V14.01,2013-01-04 21:32:00,
2013-01-04 15:37:00,42.0,36.9,30.38,NNE,27,3.0,6.0,82,0.00,,---,0.09,VWS V14.01,2013-01-04 21:37:00,
2013-01-04 15:42:00,42.0,36.9,30.39,NNE,27,5.0,6.0,82,0.00,,---,0.09,VWS V14.01,2013-01-04 21:42:00,
2013-01-04 15:47:00,42.0,37.2,30.39,North,359,2.0,6.0,83,0.00,,---,0.09,VWS V14.01,2013-01-04 21:47:00,
2013-01-04 15:52:00,42.1,37.3,30.39,NE,47,3.0,6.0,83,0.00,,---,0.09,VWS V14.01,2013-01-04 21:52:00,
2013-01-04 15:57:00,42.0,37.2,30.39,NNE,19,5.0,7.0,83,0.00,,---,0.09,VWS V14.01,2013-01-04 21:57:00,
2013-01-04 16:00:00,41.9,37.1,30.39,North,354,4.0,7.0,83,0.00,,---,0.09,VWS V14.01,2013-01-04 22:00:00,
2013-01-04 16:02:00,41.9,37.4,30.39,NE,56,2.0,4.0,84,0.00,,---,0.09,VWS V14.01,2013-01-04 22:02:00,
2013-01-04 16:07:00,41.8,37.3,30.39,NW,322,2.0,5.0,84,0.00,,---,0.09,VWS V14.01,2013-01-04 22:07:00,
2013-01-04 16:12:00,41.7,37.5,30.39,North,356,1.0,6.0,85,0.00,,---,0.09,VWS V14.01,2013-01-04 22:12:00,
2013-01-04 16:17:00,41.6,37.1,30.39,NNE,29,1.0,6.0,84,0.00,,---,0.09,VWS V14.01,2013-01-04 22:17:00,
2013-01-04 16:22:00,41.7,37.5,30.39,North,349,2.0,6.0,85,0.00,,---,0.09,VWS V14.01,2013-01-04 22:22:00,
2013-01-04 16:33:00,41.5,36.7,30.39,NE,46,3.0,3.0,83,0.00,,,0.09,Wunderground v.1.15,2013-01-04 22:33:00,
2013-01-04 16:38:00,41.5,36.7,30.39,NNE,27,3.0,8.0,83,0.00,,---,0.09,VWS V14.01,2013-01-04 22:38:00,
2013-01-04 16:43:00,41.6,37.1,30.39,NE,41,1.0,8.0,84,0.00,,---,0.09,VWS V14.01,2013-01-04 22:43:00,
2013-01-04 16:48:00,41.7,37.5,30.39,NE,44,1.0,8.0,85,0.00,,---,0.09,VWS V14.01,2013-01-04 22:48:00,
2013-01-04 16:53:00,41.5,37.0,30.40,North,349,5.0,8.0,84,0.00,,---,0.09,VWS V14.01,2013-01-04 22:53:00,
2013-01-04 16:58:00,41.4,36.9,30.40,ENE,60,3.0,8.0,84,0.00,,---,0.09,VWS V14.01,2013-01-04 22:58:00,
2013-01-04 17:00:00,41.4,37.2,30.39,NNE,18,2.0,8.0,85,0.00,,---,0.09,VWS V14.01,2013-01-04 23:00:00,
2013-01-04 17:03:00,41.4,37.2,30.39,NNW,337,2.0,5.0,85,0.00,,---,0.09,VWS V14.01,2013-01-04 23:03:00,
2013-01-04 17:08:00,41.4,37.2,30.39,North,5,1.0,5.0,85,0.00,,---,0.09,VWS V14.01,2013-01-04 23:08:00,
2013-01-04 17:13:00,41.4,37.2,30.39,NNE,15,3.0,5.0,85,0.00,,---,0.09,VWS V14.01,2013-01-04 23:13:00,
2013-01-04 17:18:00,41.4,37.5,30.39,NNE,25,3.0,5.0,86,0.00,,---,0.09,VWS V14.01,2013-01-04 23:18:00,
2013-01-04 17:23:00,41.4,37.8,30.39,North,8,4.0,5.0,87,0.00,,---,0.09,VWS V14.01,2013-01-04 23:23:00,
2013-01-04 17:28:00,41.3,37.1,30.39,North,6,2.0,5.0,85,0.00,,---,0.09,VWS V14.01,2013-01-04 23:28:00,
2013-01-04 17:30:00,41.2,37.0,30.39,NW,324,1.0,5.0,85,0.00,,---,0.09,VWS V14.01,2013-01-04 23:30:00,
2013-01-04 17:33:00,41.2,37.0,30.39,North,1,4.0,6.0,85,0.00,,---,0.09,VWS V14.01,2013-01-04 23:33:00,
2013-01-04 17:38:00,41.1,37.2,30.39,NW,321,1.0,7.0,86,0.00,,---,0.09,VWS V14.01,2013-01-04 23:38:00,
2013-01-04 17:43:00,41.1,37.5,30.39,North,354,2.0,7.0,87,0.00,,---,0.09,VWS V14.01,2013-01-04 23:43:00,
2013-01-04 17:48:00,41.0,37.1,30.39,NE,47,4.0,7.0,86,0.00,,---,0.09,VWS V14.01,2013-01-04 23:48:00,
2013-01-04 17:53:00,40.9,37.0,30.39,NE,46,2.0,7.0,86,0.00,,---,0.09,VWS V14.01,2013-01-04 23:53:00,
2013-01-04 17:58:00,40.9,37.0,30.39,NNW,344,2.0,7.0,86,0.00,,---,0.09,VWS V14.01,2013-01-04 23:58:00,
2013-01-04 18:00:00,40.9,37.0,30.39,NNW,330,2.0,7.0,86,0.00,,---,0.09,VWS V14.01,2013-01-05 00:00:00,
2013-01-04 18:03:00,40.9,37.0,30.40,NNE,29,0.0,5.0,86,0.00,,---,0.09,VWS V14.01,2013-01-05 00:03:00,
2013-01-04 18:08:00,40.9,37.0,30.40,North,5,0.0,6.0,86,0.00,,---,0.09,VWS V14.01,2013-01-05 00:08:00,
2013-01-04 18:13:00,40.9,37.3,30.40,NE,48,1.0,6.0,87,0.00,,---,0.09,VWS V14.01,2013-01-05 00:13:00,
2013-01-04 18:18:00,40.8,37.2,30.40,NNW,346,1.0,6.0,87,0.00,,---,0.09,VWS V14.01,2013-01-05 00:18:00,
2013-01-04 18:32:00,40.8,37.2,30.40,NE,43,1.0,1.0,87,0.00,,---,0.09,VWS V14.01,2013-01-05 00:32:00,
2013-01-04 18:37:00,40.8,37.5,30.40,NE,51,1.0,4.0,88,0.00,,---,0.09,VWS V14.01,2013-01-05 00:37:00,
2013-01-04 18:42:00,40.9,37.6,30.40,NNE,33,0.0,4.0,88,0.00,,---,0.09,VWS V14.01,2013-01-05 00:42:00,
2013-01-04 18:47:00,40.9,37.6,30.40,NNE,30,0.0,4.0,88,0.00,,---,0.09,VWS V14.01,2013-01-05 00:47:00,
2013-01-04 18:52:00,40.9,37.3,30.40,North,9,3.0,4.0,87,0.00,,---,0.09,VWS V14.01,2013-01-05 00:52:00,
2013-01-04 18:57:00,40.8,37.2,30.40,NE,41,2.0,7.0,87,0.00,,---,0.09,VWS V14.01,2013-01-05 00:57:00,
2013-01-04 19:02:00,40.8,37.2,30.41,NNE,12,1.0,2.0,87,0.00,,---,0.09,VWS V14.01,2013-01-05 01:02:00,
2013-01-04 19:07:00,40.8,36.9,30.40,North,359,3.0,5.0,86,0.00,,---,0.09,VWS V14.01,2013-01-05 01:07:00,
2013-01-04 19:12:00,40.8,36.9,30.41,NNE,23,1.0,5.0,86,0.00,,---,0.09,VWS V14.01,2013-01-05 01:12:00,
2013-01-04 19:17:00,40.8,36.9,30.40,NNE,32,2.0,5.0,86,0.00,,---,0.09,VWS V14.01,2013-01-05 01:17:00,
2013-01-04 19:22:00,40.9,37.3,30.40,NNE,32,0.0,5.0,87,0.00,,---,0.09,VWS V14.01,2013-01-05 01:22:00,
2013-01-04 19:27:00,40.8,36.9,30.41,NW,308,1.0,5.0,86,0.00,,---,0.09,VWS V14.01,2013-01-05 01:27:00,
2013-01-04 19:32:00,40.8,36.9,30.40,NNE,23,0.0,3.0,86,0.00,,---,0.09,VWS V14.01,2013-01-05 01:32:00,
2013-01-04 19:37:00,40.9,37.3,30.40,NE,39,3.0,5.0,87,0.00,,---,0.09,VWS V14.01,2013-01-05 01:37:00,
2013-01-04 19:42:00,40.9,37.3,30.40,ENE,60,0.0,5.0,87,0.00,,---,0.09,VWS V14.01,2013-01-05 01:42:00,
2013-01-04 19:47:00,40.9,37.3,30.40,North,8,0.0,5.0,87,0.00,,---,0.09,VWS V14.01,2013-01-05 01:47:00,
2013-01-04 19:52:00,40.9,37.3,30.41,NE,56,2.0,5.0,87,0.00,,---,0.09,VWS V14.01,2013-01-05 01:52:00,
2013-01-04 19:57:00,40.9,37.3,30.41,NNE,15,1.0,5.0,87,0.00,,---,0.09,VWS V14.01,2013-01-05 01:57:00,
2013-01-04 20:02:00,40.8,37.2,30.41,NNW,336,0.0,2.0,87,0.00,,---,0.09,VWS V14.01,2013-01-05 02:02:00,
2013-01-04 20:07:00,40.8,37.5,30.41,NNW,345,0.0,2.0,88,0.00,,---,0.09,VWS V14.01,2013-01-05 02:07:00,
2013-01-04 20:12:00,40.8,37.2,30.41,NNW,338,0.0,4.0,87,0.00,,---,0.09,VWS V14.01,2013-01-05 02:12:00,
2013-01-04 20:17:00,40.8,37.5,30.41,NNE,19,0.0,4.0,88,0.00,,---,0.09,VWS V14.01,2013-01-05 02:17:00,
2013-01-04 20:22:00,40.8,37.5,30.41,NE,39,0.0,4.0,88,0.00,,---,0.09,VWS V14.01,2013-01-05 02:22:00,
2013-01-04 20:27:00,40.8,37.5,30.41,NNW,348,0.0,4.0,88,0.00,,---,0.09,VWS V14.01,2013-01-05 02:27:00,
2013-01-04 20:32:00,40.8,37.5,30.42,North,5,0.0,2.0,88,0.00,,---,0.09,VWS V14.01,2013-01-05 02:32:00,
2013-01-04 20:37:00,40.8,37.5,30.41,North,5,0.0,2.0,88,0.00,,---,0.09,VWS V14.01,2013-01-05 02:37:00,
2013-01-04 20:42:00,40.8,37.8,30.42,NNW,347,1.0,2.0,89,0.00,,---,0.09,VWS V14.01,2013-01-05 02:42:00,
2013-01-04 20:47:00,40.8,37.8,30.41,North,360,1.0,3.0,89,0.00,,---,0.09,VWS V14.01,2013-01-05 02:47:00,
2013-01-04 20:52:00,40.7,37.7,30.41,North,352,0.0,3.0,89,0.00,,---,0.09,VWS V14.01,2013-01-05 02:52:00,
2013-01-04 20:57:00,40.7,37.7,30.41,North,360,1.0,3.0,89,0.00,,---,0.09,VWS V14.01,2013-01-05 02:57:00,
2013-01-04 21:02:00,40.7,37.7,30.41,NNE,12,2.0,4.0,89,0.00,,---,0.09,VWS V14.01,2013-01-05 03:02:00,
2013-01-04 21:07:00,40.7,37.7,30.42,NNE,23,0.0,4.0,89,0.00,,---,0.09,VWS V14.01,2013-01-05 03:07:00,
2013-01-04 21:12:00,40.8,37.8,30.41,NNW,344,1.0,4.0,89,0.00,,---,0.09,VWS V14.01,2013-01-05 03:12:00,
2013-01-04 21:17:00,40.8,37.8,30.42,NNW,330,1.0,4.0,89,0.00,,---,0.09,VWS V14.01,2013-01-05 03:17:00,
2013-01-04 21:22:00,40.8,37.8,30.42,NW,316,0.0,4.0,89,0.00,,---,0.09,VWS V14.01,2013-01-05 03:22:00,
2013-01-04 21:26:00,40.8,37.8,30.42,NNE,19,0.0,4.0,89,0.00,,---,0.09,VWS V14.01,2013-01-05 03:26:00,
2013-01-04 21:31:00,40.8,37.8,30.42,NNW,336,0.0,1.0,89,0.00,,---,0.09,VWS V14.01,2013-01-05 03:31:00,
2013-01-04 21:36:00,40.8,37.8,30.42,North,6,0.0,2.0,89,0.00,,---,0.09,VWS V14.01,2013-01-05 03:36:00,
2013-01-04 21:41:00,40.8,37.8,30.42,North,356,0.0,2.0,89,0.00,,---,0.09,VWS V14.01,2013-01-05 03:41:00,
2013-01-04 21:46:00,40.8,37.8,30.42,NNW,330,0.0,2.0,89,0.00,,---,0.09,VWS V14.01,2013-01-05 03:46:00,
2013-01-04 21:51:00,40.8,37.8,30.42,NNW,328,0.0,2.0,89,0.00,,---,0.09,VWS V14.01,2013-01-05 03:51:00,
2013-01-04 21:56:00,40.7,37.7,30.41,NNW,342,1.0,3.0,89,0.00,,---,0.09,VWS V14.01,2013-01-05 03:56:00,
2013-01-04 22:01:00,40.7,38.0,30.41,NNW,344,0.0,2.0,90,0.00,,---,0.09,VWS V14.01,2013-01-05 04:01:00,
2013-01-04 22:06:00,40.7,38.0,30.41,NNW,331,0.0,2.0,90,0.00,,---,0.09,VWS V14.01,2013-01-05 04:06:00,
2013-01-04 22:11:00,40.7,38.0,30.41,NNW,342,0.0,2.0,90,0.00,,---,0.09,VWS V14.01,2013-01-05 04:11:00,
2013-01-04 22:16:00,40.6,37.9,30.42,NNW,332,0.0,3.0,90,0.00,,---,0.09,VWS V14.01,2013-01-05 04:16:00,
2013-01-04 22:21:00,40.6,37.6,30.41,NW,316,1.0,3.0,89,0.00,,---,0.09,VWS V14.01,2013-01-05 04:21:00,
2013-01-04 22:26:00,40.6,37.6,30.42,NNW,329,1.0,3.0,89,0.00,,---,0.09,VWS V14.01,2013-01-05 04:26:00,
2013-01-04 22:31:00,40.6,37.6,30.42,NW,325,0.0,1.0,89,0.00,,---,0.09,VWS V14.01,2013-01-05 04:31:00,
2013-01-04 22:36:00,40.6,37.6,30.41,NW,323,0.0,2.0,89,0.00,,---,0.09,VWS V14.01,2013-01-05 04:36:00,
2013-01-04 22:41:00,40.6,37.6,30.41,NW,314,0.0,2.0,89,0.00,,---,0.09,VWS V14.01,2013-01-05 04:41:00,
2013-01-04 22:46:00,40.5,37.5,30.41,WNW,300,1.0,3.0,89,0.00,,---,0.09,VWS V14.01,2013-01-05 04:46:00,
2013-01-04 22:51:00,40.5,37.5,30.41,NNW,328,4.0,5.0,89,0.00,,---,0.09,VWS V14.01,2013-01-05 04:51:00,
2013-01-04 22:56:00,40.4,37.4,30.40,NW,316,0.0,5.0,89,0.00,,---,0.09,VWS V14.01,2013-01-05 04:56:00,
2013-01-04 23:00:00,40.4,37.4,30.40,North,8,0.0,5.0,89,0.00,,---,0.09,VWS V14.01,2013-01-05 05:00:00,
2013-01-04 23:01:00,40.4,37.4,30.40,NW,320,0.0,1.0,89,0.00,,---,0.09,VWS V14.01,2013-01-05 05:01:00,
2013-01-04 23:06:00,40.4,37.4,30.40,North,358,1.0,4.0,89,0.00,,---,0.09,VWS V14.01,2013-01-05 05:06:00,
2013-01-04 23:11:00,40.5,37.5,30.40,NE,36,0.0,4.0,89,0.00,,---,0.09,VWS V14.01,2013-01-05 05:11:00,
2013-01-04 23:16:00,40.5,37.5,30.40,NE,40,0.0,4.0,89,0.00,,---,0.09,VWS V14.01,2013-01-05 05:16:00,
2013-01-04 23:21:00,40.5,37.2,30.40,NE,46,0.0,4.0,88,0.00,,---,0.09,VWS V14.01,2013-01-05 05:21:00,
2013-01-04 23:26:00,40.6,37.3,30.40,NNW,340,0.0,4.0,88,0.00,,---,0.09,VWS V14.01,2013-01-05 05:26:00,
2013-01-04 23:31:00,40.5,37.5,30.40,NE,50,1.0,1.0,89,0.00,,---,0.09,VWS V14.01,2013-01-05 05:31:00,
2013-01-04 23:36:00,40.6,37.3,30.40,NNE,32,0.0,1.0,88,0.00,,---,0.09,VWS V14.01,2013-01-05 05:36:00,
2013-01-04 23:41:00,40.6,37.6,30.40,NE,49,0.0,2.0,89,0.00,,---,0.09,VWS V14.01,2013-01-05 05:41:00,
2013-01-04 23:46:00,40.5,37.2,30.39,North,356,0.0,3.0,88,0.00,,---,0.09,VWS V14.01,2013-01-05 05:46:00,
2013-01-04 23:51:00,40.6,37.3,30.39,NE,45,0.0,3.0,88,0.00,,---,0.09,VWS V14.01,2013-01-05 05:51:00,
2013-01-04 23:56:00,40.5,37.2,30.39,NE,43,0.0,3.0,88,0.00,,---,0.09,VWS V14.01,2013-01-05 05:56:00,